To NAV CANADA Home Page Login to a new session Search on AWWS site Feedback and Comments Disclaimer Vers la page française équivalente Tips FAQ What's new on the site To the Forecasts and Observations / NOTAM section To "File a Flight Plan" website Publications and other links Update of the User's profile FIC Telephone Numbers My Weather Data Folder Route Weather Data Regional Weather Data Local Weather Data To the Forecasts and Observations / NOTAM section
Request Generated 10/17/2017 at 01:51:51 UTC . Weather information available at that time is displayed.

METAR/TAF

FLIN FLON/MB    (show WxCam)

LWIS CYFO 170100Z AUTO 30003KT 280V340 08/01 A2972=
LWIS CYFO 170000Z AUTO 30004KT 09/01 A2968=
METAR CYFO 162300Z 30006KT 260V340 15SM SCT250 10/01 A2966 RMK CI4
LAST OBS/NEXT 171100UTC SLP056 DENSITY ALT 1000FT=

CYFO - No TAF is issued for this station

Your time UTC time
Weather data provided by Environment Canada and NAV CANADA